Location: Grasslands National Park East Block
(49.0708°N, 106.5295°W)
Time: 23:15:41
(UTC-06:00)

Vanguard 1 Rocket - Pass Details

Date: 22 September 2019
Orbit: 650 x 4226 km, 34.3° (Epoch: 19 October)

Event Time Altitude Azimuth Distance (km) Brightness Sun altitude
Rises 00:41:17 0° 270° (W) 5,727 11.5 -40.4°
Enters shadow 00:46:14 - 255° (WSW) 4,393 10.8 -40.5°
Reaches altitude 10° 00:49:23 10° 240° (WSW) 3,685 - -40.5°
Maximum altitude 00:51:18 11° 228° (SW) 3,375 - -40.5°
Drops below altitude 10° 00:53:03 10° 215° (SW) 3,215 - -40.5°
Sets 00:58:07 0° 178° (S) 3,566 - -40.5°
